Regional Weather Roundup
Issued by NWS

Home | Current Version | Previous Version | Text Only | Print | Product List | Glossary On
Versions: 1 2 3 4 5 6 7 8 9 10 11 12 13 14 15 16 17 18 19 20 21 22 23 24 25 26 27 28 29 30 31 32 33 34 35 36 37 38 39 40 41 42 43 44 45 46 47 48 49 50
000
ASUS43 KDMX 302007
RWRIA

WEATHER ROUNDUP FOR IOWA
NATIONAL WEATHER SERVICE DES MOINES IA
200 PM CST FRI JAN 30 2015

NOTE: "FAIR" INDICATES FEW OR NO CLOUDS BELOW 12,000 FEET WITH NO
SIGNIFICANT WEATHER AND/OR OBSTRUCTIONS TO VISIBILITY.

* - THESE STATIONS ARE NOT NWS STATIONS...THUS NOT UNDER NWS
QUALITY CONTROL.  THEY ALSO DO NOT REPORT WEATHER SUCH
AS PRECIPITATION OR FOG.

IAZ001>003-012>014-020>022-031>034-043>046-302100-
   NORTHWEST IOWA

CITY           SKY/WX    TMP DP  RH WIND       PRES   REMARKS
CARROLL *      SUNNY     34  19  55 S10       30.39F WCI  26
CHEROKEE *     SUNNY     32  25  74 S12       30.35F WCI  23
DENISON *      SUNNY     34  21  60 S13       30.35F WCI  25
LE MARS *      SUNNY     34  25  69 S15       30.33F WCI  24
ORANGE CITY *  SUNNY     34  25  69 S14       30.31F WCI  24
SHELDON *      SUNNY     32  27  80 S14G20    30.31F WCI  22
SIOUX CITY     SUNNY     38  26  62 S14       30.34F WCI  30
SPENCER        SUNNY     32  22  66 S10       30.35F WCI  24
STORM LAKE *   SUNNY     32  23  69 S12       30.35F WCI  23
$$

IAZ055>058-069>071-079>083-090>094-302100-
   SOUTHWEST IOWA

CITY           SKY/WX    TMP DP  RH WIND       PRES   REMARKS
ATLANTIC *     SUNNY     34  18  51 S12       30.40F WCI  25
AUDUBON *      SUNNY     34  19  55 S10       30.40F WCI  26
CLARINDA *     SUNNY     36  18  48 SW8G18    30.46F WCI  29
COUNCIL BLFS * SUNNY     34  21  60 S7        30.38F WCI  28
CRESTON *      SUNNY     34  16  47 S12       30.42F WCI  25
HARLAN  *      SUNNY     34  23  64 S10       30.42F WCI  26
LAMONI         SUNNY     33  12  41 SW6       30.44F WCI  28
RED OAK *      SUNNY     36  19  51 S10       30.43F WCI  28
SHENANDOAH *   SUNNY     36  21  55 S9        30.44F WCI  29
$$

IAZ047>049-059>061-072>074-084-302100-
   CENTRAL IOWA

CITY           SKY/WX    TMP DP  RH WIND       PRES   REMARKS
AMES             N/A     30  15  53 S7        30.43F WCI  23
ANKENY *       SUNNY     32  12  43 SW8       30.44F WCI  25
CHARITON *     SUNNY     34  16  47 VRB5      30.44F WCI  30
DES MOINES     MOSUNNY   33  13  43 S10       30.44F WCI  25
GRINNELL*      SUNNY     28  14  54 CALM      30.45F
KNOXVILLE *    SUNNY     32  12  43 W6        30.43F WCI  26
MARSHALLTOWN   SUNNY     28  10  46 SW5       30.43F WCI  23
PELLA *        SUNNY     34  14  44 CALM      30.46F
PERRY *          N/A     34  18  51 S9        30.42F WCI  26
$$

IAZ004>006-015-016-023>025-035-036-302100-
   NORTH CENTRAL IOWA

CITY           SKY/WX    TMP DP  RH WIND       PRES   REMARKS
ALGONA *       SUNNY     30  21  69 S14       30.39F WCI  20
CLARION *      SUNNY     28  19  69 S6G13     30.41F WCI  22
ESTHERVILLE    SUNNY     29  20  69 S14       30.36F WCI  18
FORT DODGE *   SUNNY     30  18  59 S9        30.41F WCI  22
MASON CITY     SUNNY     27  15  61 S10       30.41F WCI  17
FOREST CITY *  SUNNY     28  16  59 S9        30.39F WCI  20
IOWA FALLS *     N/A     28  14  54 S6        30.43F WCI  22
$$

IAZ007>011-017>019-026>030-037>042-050>054-066-302100-
   NORTHEAST IOWA

CITY           SKY/WX    TMP DP  RH WIND       PRES   REMARKS
CEDAR RAPIDS   SUNNY     29  12  49 CALM      30.45F
CHARLES CITY * SUNNY     27  10  50 S7        30.43F WCI  19
CLINTON *      SUNNY     27  12  54 SW3       30.52S
DECORAH *      SUNNY     23   5  46 SW6       30.42F WCI  16
DUBUQUE        SUNNY     25  12  58 VRB5      30.45F WCI  19
MONTICELLO *   SUNNY     28  12  50 VRB3      30.46F
OELWEIN *      SUNNY     27   9  46 CALM      30.44F
WATERLOO       SUNNY     27   7  42 SW6       30.45F WCI  20
$$

IAZ064-065-067-068-078-302100-
   EAST CENTRAL IOWA

CITY           SKY/WX    TMP DP  RH WIND       PRES   REMARKS
DAVENPORT      SUNNY     28  15  58 NW7       30.49F WCI  21
IOWA CITY      SUNNY     29  15  56 VRB7      30.49F WCI  22
MT. PLEASANT * SUNNY     32  14  47 S3        30.48F
MUSCATINE *    SUNNY     30  16  55 CALM      30.49F
QUAD CITIES    SUNNY     29  14  53 VRB5      30.48F WCI  24
$$

IAZ062-063-075>077-085>089-095>099-302100-
   SOUTHEAST IOWA

CITY           SKY/WX    TMP DP  RH WIND       PRES   REMARKS
BURLINGTON     SUNNY     31  16  54 S6        30.47F WCI  25
FAIRFIELD *    SUNNY     30  16  55 SW5       30.47F WCI  25
FORT MADISON * SUNNY     30  16  55 CALM      30.48F
KEOKUK *       SUNNY     34  16  47 VRB7      30.47F WCI  28
OSKALOOSA *      N/A     30  14  51 CALM      30.46F
CENTERVILLE *    N/A     32  14  47 SW7       30.46F WCI  26
OTTUMWA        SUNNY     32  13  45 VRB3      30.45F
WASHINGTON *   SUNNY     30  16  55 VRB5      30.47F WCI  25
$$

ABBREVIATIONS USED IN REMARKS
   TC - TEMPERATURES IN CELSIUS
  WCI - WIND CHILL INDEX
   HX - HEAT INDEX
  VSB - VISIBILITY
$$




USA.gov is the U.S. government's official web portal to all federal, state and local government web resources and services.